Home > Weather > Tucumán > Past weeks

Flag for Argentina Past Weather in Tucumán, Tucumán, Argentina — Yesterday and Last 2 Weeks

Now
61 °F

Clear.


Feels Like: 61 °F
Forecast: 45 / 70 °F
Wind: 3 mph from West

Location: Tucuman Aerodrome

Current Time: Jul 30, 2016 at 9:36:35 PM

Latest Report: Jul 30, 2016 at 9:00 PM


Visibility: 3 mi

Pressure: 29.92 "Hg

Humidity: 63%

Dew Point: 48 °F

Location of TucumánLocation

Past Weather in Tucumán — Graph

°F

Tucumán Temperature Yesterday

Maximum temperature yesterday: 66 °F (at 4:00 PM)
Minimum temperature yesterday: 43 °F (at 3:00 AM)
Average temperature yesterday: 53 °F

High & Low Weather Summary for the Past Weeks

 TemperatureHumidityPressure
High72 °F (Jul 22, 4:00 PM)100% (Jul 22, 5:00 AM)30.42 "Hg (Jul 22, 5:00 AM)
Low37 °F (Jul 28, 4:00 AM)37% (Jul 20, 4:00 PM)29.77 "Hg (Jul 30, 5:00 PM)
Average53 °F73%30.12 "Hg
* Reported Jul 15 8:00 PM — Jul 30 8:00 PM, Tucumán, Weather by CustomWeather, © 2016

Note: Actual official high and low records may vary slightly from our data, if they occured in-between our weather recording intervals... More about our weather records

Advertising

Tucumán Weather History for the Previous 24 Hours

Scroll right to see more
 ConditionsComfort  
Time TempWeatherWind HumidityBarometerVisibility
8:00 PM
Sat, Jul 30
59 °FClear.7 mph68%29.86 "Hg2 mi
7:00 PM63 °FPassing clouds.5 mph64%29.83 "Hg2 mi
6:00 PM72 °FClear.5 mph44%29.80 "Hg3 mi
5:00 PM72 °FClear.3 mph44%29.77 "Hg4 mi
4:00 PM72 °FClear.No wind44%29.80 "Hg4 mi
3:00 PM68 °FClear.7 mph49%29.83 "Hg4 mi
2:00 PM66 °FClear.3 mph49%29.89 "Hg4 mi
1:00 PM64 °FClear.9 mph49%29.92 "Hg4 mi
12:00 PM63 °FClear.2 mph56%29.95 "Hg4 mi
11:00 AM57 °FClear.5 mph63%29.98 "Hg4 mi
10:00 AM52 °FClear.3 mph72%29.98 "Hg4 mi
9:00 AM46 °FClear.9 mph82%29.98 "Hg4 mi
8:00 AM46 °FClear.9 mph82%29.95 "Hg5 mi
7:00 AM46 °FClear.6 mph76%29.95 "Hg4 mi
6:00 AM45 °FClear.7 mph87%29.92 "Hg4 mi
5:00 AM46 °FClear.6 mph87%29.95 "Hg4 mi
4:00 AM46 °FClear.7 mph87%29.98 "Hg4 mi
3:00 AM46 °FClear.7 mph87%29.98 "Hg4 mi
1:00 AM46 °FClear.6 mph87%30.01 "Hg4 mi
12:00 AM46 °FClear.5 mph87%30.04 "Hg4 mi
11:00 PM
Fri, Jul 29
46 °FClear.6 mph87%30.04 "Hg4 mi
10:00 PM50 °FClear.5 mph76%30.01 "Hg4 mi
9:00 PM54 °FClear.3 mph72%30.01 "Hg4 mi
Weather by CustomWeather, © 2016

See weather overviewHow to use our weather pages